Storm Lake, IA

5:43 AM CST on November 21, 2019 (GMT -0600)
Storm Lake Municipal

Weather History for KSLB - October, 2019

Change the Weather History Date:

Sunday, October 20, 2019

  Actual Average Record
Temperature  
Mean Temperature 50 °F -  
Max Temperature 62 °F 59 °F 82 °F (2003)
Min Temperature 39 °F 39 °F 26 °F (2018)
Degree Days  
Heating Degree Days 14    
Moisture  
Dew Point 39 °F    
Average Humidity 65    
Maximum Humidity 100    
Minimum Humidity 37    
Precipitation  
Precipitation 0.00 in - - ()
Sea Level Pressure  
Sea Level Pressure 29.71 in    
Wind  
Wind Speed 10 mph ()    
Max Wind Speed 24 mph    
Max Gust Speed 32 mph    
Visibility 9.4 miles    
Events Rain    
Averages and records for this station are not official NWS values.
T = Trace of Precipitation, MM = Missing Value Source: Averaged Metar Reports

Daily Weather History Graph

Daily Weather History Graph

Search for Another Location

Airport or City:

Astronomy

Oct. 20, 2019 Rise Set
Actual Time 7:39 AM CDT 6:31 PM CDT
Civil Twilight 7:11 AM CDT 6:59 PM CDT
Nautical Twilight 6:38 AM CDT 7:32 PM CDT
Astronomical Twilight 6:05 AM CDT 8:05 PM CDT
Moon 11:35 PM CDT (10/20) 2:13 PM CDT (10/20)
Length of Visible Light 11h 48m
Length of Day
10h 51m
Waning Gibbous, 59% of the Moon is Illuminated
Oct 20
Waning Gibbous
Oct 21
Last Quarter
Oct 27
New
Nov 4
First Quarter
Nov 12
Full

Hourly Weather History & Observations

Time (CDT) Temp. Windchill Dew Point Humidity Pressure Visibility Wind Dir Wind Speed Gust Speed Precip Events Conditions
12:15 AM 50.0 °F - 32.0 °F 50% 29.75 in 10.0 mi SSW 6.9 mph - N/A   Clear
12:35 AM 48.2 °F - 32.0 °F 54% 29.75 in 10.0 mi SSW 6.9 mph - N/A   Clear
12:55 AM 46.4 °F 42.9 °F 32.0 °F 57% 29.74 in 10.0 mi South 6.9 mph - N/A   Clear
1:15 AM 46.4 °F 42.9 °F 32.0 °F 57% 29.74 in 10.0 mi South 6.9 mph - N/A   Clear
1:35 AM 46.4 °F 42.9 °F 33.8 °F 62% 29.74 in 10.0 mi South 6.9 mph - N/A   Clear
1:55 AM 44.6 °F 40.7 °F 33.8 °F 66% 29.74 in 10.0 mi South 6.9 mph - N/A   Clear
2:15 AM 44.6 °F 40.7 °F 33.8 °F 66% 29.74 in 10.0 mi South 6.9 mph - N/A   Clear
2:35 AM 44.6 °F 40.7 °F 35.6 °F 71% 29.74 in 10.0 mi South 6.9 mph - N/A   Clear
2:55 AM 42.8 °F 38.0 °F 35.6 °F 76% 29.75 in 10.0 mi SSW 8.1 mph - N/A   Clear
3:15 AM 44.6 °F 40.2 °F 35.6 °F 71% 29.74 in 10.0 mi SSW 8.1 mph - N/A   Clear
3:35 AM 44.6 °F 41.4 °F 35.6 °F 71% 29.74 in 10.0 mi South 5.8 mph - N/A   Clear
3:55 AM 42.8 °F 38.6 °F 35.6 °F 76% 29.74 in 10.0 mi South 6.9 mph - N/A   Clear
4:15 AM 42.8 °F 38.6 °F 35.6 °F 76% 29.74 in 10.0 mi South 6.9 mph - N/A   Clear
4:35 AM 41.0 °F 35.8 °F 35.6 °F 81% 29.75 in 10.0 mi South 8.1 mph - N/A   Clear
4:55 AM 41.0 °F 36.4 °F 35.6 °F 81% 29.75 in 10.0 mi SSW 6.9 mph - N/A   Clear
5:15 AM 41.0 °F 36.4 °F 35.6 °F 81% 29.75 in 10.0 mi South 6.9 mph - N/A   Clear
5:35 AM 41.0 °F 35.8 °F 35.6 °F 81% 29.76 in 10.0 mi South 8.1 mph - N/A   Clear
5:55 AM 41.0 °F 36.4 °F 35.6 °F 81% 29.76 in 10.0 mi South 6.9 mph - N/A   Clear
6:15 AM 41.0 °F 36.4 °F 35.6 °F 81% 29.76 in 10.0 mi South 6.9 mph - N/A   Clear
6:35 AM 41.0 °F 36.4 °F 35.6 °F 81% 29.76 in 10.0 mi South 6.9 mph - N/A   Clear
6:55 AM 39.2 °F 33.6 °F 35.6 °F 87% 29.75 in 10.0 mi SSE 8.1 mph - N/A   Clear
7:15 AM 42.8 °F 37.5 °F 39.2 °F 87% 29.76 in 10.0 mi South 9.2 mph - N/A   Clear
7:35 AM 42.8 °F 37.0 °F 39.2 °F 87% 29.76 in 10.0 mi South 10.4 mph - N/A   Clear
7:55 AM 42.8 °F 38.6 °F 39.2 °F 87% 29.76 in 10.0 mi SSE 6.9 mph - N/A   Clear
8:15 AM 42.8 °F 38.0 °F 39.2 °F 87% 29.76 in 10.0 mi SE 8.1 mph - N/A   Clear
8:35 AM 42.8 °F 38.0 °F 39.2 °F 87% 29.76 in 10.0 mi SSE 8.1 mph - N/A   Clear
8:55 AM 44.6 °F 39.7 °F 41.0 °F 87% 29.77 in 10.0 mi SSE 9.2 mph - N/A   Clear
9:15 AM 48.2 °F - 42.8 °F 82% 29.77 in 10.0 mi South 9.2 mph - N/A   Clear
9:35 AM 50.0 °F - 44.6 °F 82% 29.77 in 10.0 mi South 9.2 mph - N/A   Clear
9:55 AM 51.8 °F - 44.6 °F 76% 29.77 in 10.0 mi South 12.7 mph - N/A   Clear
10:15 AM 53.6 °F - 46.4 °F 77% 29.78 in 10.0 mi South 11.5 mph 17.3 mph N/A   Clear
10:35 AM 55.4 °F - 46.4 °F 72% 29.78 in 10.0 mi SSE 12.7 mph 19.6 mph N/A   Clear
10:55 AM 57.2 °F - 46.4 °F 67% 29.78 in 10.0 mi South 15.0 mph - N/A   Clear
11:15 AM 57.2 °F - 46.4 °F 67% 29.77 in 10.0 mi SSE 15.0 mph - N/A   Clear
11:35 AM 57.2 °F - 46.4 °F 67% 29.77 in 10.0 mi SSE 15.0 mph - N/A   Clear
11:55 AM 57.2 °F - 46.4 °F 67% 29.76 in 10.0 mi South 12.7 mph 21.9 mph N/A   Clear
12:15 PM 59.0 °F - 44.6 °F 59% 29.75 in 10.0 mi SSE 13.8 mph 24.2 mph N/A   Clear
12:35 PM 59.0 °F - 42.8 °F 55% 29.74 in 10.0 mi SSE 16.1 mph 24.2 mph N/A   Unknown
12:55 PM 59.0 °F - 41.0 °F 51% 29.72 in 10.0 mi SSE 17.3 mph 26.5 mph N/A   Unknown
1:15 PM 60.8 °F - 41.0 °F 48% 29.73 in 10.0 mi SSE 20.7 mph 31.1 mph N/A   Unknown
1:35 PM 62.6 °F - 39.2 °F 42% 29.72 in 10.0 mi SSE 24.2 mph 32.2 mph N/A   Clear
1:55 PM 62.6 °F - 37.4 °F 39% 29.72 in 10.0 mi SSE 18.4 mph 29.9 mph N/A   Unknown
2:15 PM 60.8 °F - 37.4 °F 42% 29.72 in 10.0 mi SSE 16.1 mph 28.8 mph N/A   Unknown
2:35 PM 60.8 °F - 35.6 °F 39% 29.73 in 10.0 mi SSE 16.1 mph 27.6 mph N/A   Unknown
2:55 PM 62.6 °F - 35.6 °F 37% 29.72 in 10.0 mi SSE 19.6 mph 29.9 mph N/A   Clear
3:15 PM 62.6 °F - 35.6 °F 37% 29.71 in 10.0 mi SSE 13.8 mph 27.6 mph N/A   Clear
3:35 PM 60.8 °F - 35.6 °F 39% 29.70 in 10.0 mi SSE 13.8 mph 23.0 mph N/A   Clear
3:55 PM 60.8 °F - 39.2 °F 45% 29.70 in 10.0 mi SE 17.3 mph 29.9 mph N/A   Clear
4:15 PM 60.8 °F - 39.2 °F 45% 29.69 in 10.0 mi SSE 10.4 mph 17.3 mph N/A   Clear
4:35 PM 60.8 °F - 35.6 °F 39% 29.69 in 10.0 mi SE 15.0 mph 21.9 mph N/A   Clear
4:55 PM 59.0 °F - 35.6 °F 42% 29.68 in 10.0 mi SE 13.8 mph 25.3 mph N/A   Clear
5:15 PM 59.0 °F - 37.4 °F 45% 29.66 in 10.0 mi SE 12.7 mph 19.6 mph N/A   Clear
5:35 PM 59.0 °F - 37.4 °F 45% 29.64 in 10.0 mi ESE 13.8 mph 19.6 mph N/A   Clear
5:55 PM 59.0 °F - 39.2 °F 48% 29.65 in 10.0 mi ESE 12.7 mph 25.3 mph N/A   Scattered Clouds
6:15 PM 59.0 °F - 39.2 °F 48% 29.64 in 10.0 mi ESE 15.0 mph 23.0 mph N/A   Mostly Cloudy
6:35 PM 57.2 °F - 37.4 °F 48% 29.63 in 10.0 mi ESE 17.3 mph 26.5 mph N/A   Mostly Cloudy
6:55 PM 57.2 °F - 37.4 °F 48% 29.62 in 10.0 mi ESE 18.4 mph 28.8 mph N/A   Overcast
7:15 PM 57.2 °F - 37.4 °F 48% 29.62 in 10.0 mi ESE 16.1 mph 31.1 mph N/A   Overcast
7:35 PM 57.2 °F - 37.4 °F 48% 29.61 in 10.0 mi SE 19.6 mph 27.6 mph N/A   Overcast
7:55 PM 57.2 °F - 39.2 °F 51% 29.62 in 10.0 mi SE 17.3 mph 25.3 mph N/A   Overcast
8:15 PM 55.4 °F - 39.2 °F 54% 29.62 in 10.0 mi SE 18.4 mph 26.5 mph N/A   Overcast
8:35 PM 55.4 °F - 39.2 °F 54% 29.61 in 10.0 mi SE 17.3 mph 25.3 mph N/A   Overcast
8:55 PM 55.4 °F - 37.4 °F 51% 29.61 in 10.0 mi SE 18.4 mph 27.6 mph N/A   Overcast
9:15 PM 55.4 °F - 39.2 °F 54% 29.60 in 10.0 mi SE 20.7 mph 27.6 mph N/A   Overcast
9:35 PM 53.6 °F - 41.0 °F 62% 29.60 in 9.0 mi SE 16.1 mph 25.3 mph N/A   Overcast
9:55 PM 51.8 °F - 44.6 °F 76% 29.60 in 5.0 mi SE 13.8 mph 24.2 mph N/A   Haze
10:15 PM 50.0 °F - 46.4 °F 87% 29.60 in 5.0 mi ESE 15.0 mph 21.9 mph N/A   Overcast
10:35 PM 50.0 °F - 48.2 °F 94% 29.64 in 6.0 mi SSE 10.4 mph - N/A   Overcast
10:55 PM 50.0 °F - 48.2 °F 94% 29.61 in 5.0 mi ESE 9.2 mph - N/A   Mostly Cloudy
11:15 PM 50.0 °F - 48.2 °F 94% 29.59 in 4.0 mi ESE 11.5 mph 18.4 mph N/A   Light Drizzle
11:35 PM 50.0 °F - 50.0 °F 100% 29.56 in 3.0 mi ESE 11.5 mph - N/A Rain Light Rain
11:55 PM 50.0 °F - 50.0 °F 100% 29.56 in 2.0 mi SE 9.2 mph 15.0 mph N/A Rain Light Rain